TimeEDT,TemperatureF,Dew PointF,Humidity,Sea Level PressureIn,VisibilityMPH,Wind Direction,Wind SpeedMPH,Gust SpeedMPH,PrecipitationIn,Events,Conditions,WindDirDegrees,DateUTC
12:53 AM,46.9,42.1,83,29.80,10.0,WNW,3.5,-,0.01,Rain,Light Rain,290,2013-03-24 04:53:00
1:53 AM,46.0,43.0,89,29.77,9.0,NNE,3.5,-,0.03,Rain,Light Rain,20,2013-03-24 05:53:00
2:53 AM,46.0,42.1,86,29.73,10.0,North,4.6,-,0.03,Rain,Light Rain,10,2013-03-24 06:53:00
3:53 AM,45.0,42.1,90,29.70,8.0,East,3.5,-,0.00,Rain,Light Rain,90,2013-03-24 07:53:00
4:53 AM,45.0,42.1,90,29.68,5.0,NNE,5.8,-,0.08,Rain,Rain,20,2013-03-24 08:53:00
5:53 AM,45.0,43.0,93,29.65,4.0,North,4.6,-,0.08,Rain,Light Rain,350,2013-03-24 09:53:00
6:38 AM,44.6,42.8,93,29.67,2.0,NNE,3.5,-,0.12,Rain,Rain,30,2013-03-24 10:38:00
6:53 AM,45.0,43.0,93,29.66,2.5,East,5.8,-,0.16,Rain,Rain,90,2013-03-24 10:53:00
7:20 AM,44.6,42.8,93,29.63,1.5,ENE,8.1,-,0.07,Rain,Light Rain,70,2013-03-24 11:20:00
7:29 AM,44.6,42.8,93,29.62,1.5,ENE,5.8,-,0.09,Rain,Light Rain,60,2013-03-24 11:29:00
7:31 AM,44.6,42.8,93,29.62,1.2,ENE,4.6,-,0.09,Rain,Light Rain,70,2013-03-24 11:31:00
7:40 AM,44.6,42.8,93,29.62,1.2,NE,5.8,-,0.10,Rain,Light Rain,40,2013-03-24 11:40:00
7:53 AM,45.0,43.0,93,29.62,1.2,North,6.9,-,0.10,Rain,Light Rain,10,2013-03-24 11:53:00
8:08 AM,44.6,42.8,93,29.62,1.5,NNE,6.9,-,0.01,Rain,Light Rain,20,2013-03-24 12:08:00
8:24 AM,44.6,42.8,93,29.59,1.5,ENE,10.4,-,0.03,Rain,Rain,60,2013-03-24 12:24:00
8:40 AM,46.4,44.6,93,29.60,1.5,NE,8.1,-,0.04,Rain,Light Rain,40,2013-03-24 12:40:00
8:53 AM,46.0,44.1,93,29.59,1.5,ENE,9.2,-,0.04,Rain,Light Rain,70,2013-03-24 12:53:00
9:00 AM,46.4,44.6,93,29.60,2.0,NE,5.8,-,0.00,Rain,Light Rain,40,2013-03-24 13:00:00
9:30 AM,46.4,44.6,93,29.58,3.0,NNE,6.9,-,0.01,Rain,Light Rain,20,2013-03-24 13:30:00
9:39 AM,46.4,44.6,93,29.57,4.0,NNE,6.9,-,0.01,,Overcast,20,2013-03-24 13:39:00
9:53 AM,48.0,45.0,89,29.57,5.0,NNE,9.2,-,0.01,,Overcast,30,2013-03-24 13:53:00
10:53 AM,48.0,46.0,93,29.61,4.0,NW,4.6,-,0.01,Rain,Light Rain,310,2013-03-24 14:53:00
11:10 AM,48.2,46.4,93,29.60,3.0,Calm,Calm,-,0.03,Rain,Rain,0,2013-03-24 15:10:00
11:18 AM,48.2,46.4,93,29.60,2.5,Calm,Calm,-,0.04,Rain,Rain,0,2013-03-24 15:18:00
11:45 AM,48.2,46.4,93,29.60,3.0,Calm,Calm,-,0.07,Rain,Light Rain,0,2013-03-24 15:45:00
11:53 AM,48.9,45.0,86,29.60,9.0,Calm,Calm,-,0.07,Rain,Light Rain,0,2013-03-24 15:53:00
12:53 PM,50.0,46.9,89,29.56,10.0,Calm,Calm,-,0.01,Rain,Light Rain,0,2013-03-24 16:53:00
1:53 PM,52.0,48.0,86,29.52,10.0,Calm,Calm,-,0.00,,Overcast,0,2013-03-24 17:53:00
2:53 PM,53.1,48.0,83,29.47,10.0,Calm,Calm,-,N/A,,Overcast,0,2013-03-24 18:53:00
3:53 PM,53.1,48.9,86,29.43,10.0,Calm,Calm,-,N/A,,Overcast,0,2013-03-24 19:53:00
4:15 PM,55.4,50.0,82,29.42,10.0,Calm,Calm,-,N/A,,Overcast,0,2013-03-24 20:15:00
4:28 PM,53.6,50.0,88,29.41,10.0,Calm,Calm,-,N/A,,Overcast,0,2013-03-24 20:28:00
4:53 PM,55.9,51.1,84,29.40,10.0,SSW,4.6,-,N/A,,Overcast,210,2013-03-24 20:53:00
5:17 PM,55.4,51.8,88,29.39,10.0,South,3.5,-,N/A,,Overcast,180,2013-03-24 21:17:00
5:53 PM,55.9,51.1,84,29.37,10.0,East,4.6,-,N/A,,Overcast,100,2013-03-24 21:53:00
6:39 PM,55.4,50.0,82,29.38,6.0,SW,13.8,28.8,0.03,Rain,Light Rain,220,2013-03-24 22:39:00
6:53 PM,55.0,50.0,83,29.38,10.0,SSW,15.0,-,0.03,Rain,Light Rain,210,2013-03-24 22:53:00
7:41 PM,53.6,48.2,82,29.44,1.0,West,26.5,39.1,0.02,Rain,Heavy Rain,260,2013-03-24 23:41:00
7:49 PM,51.8,48.2,88,29.45,3.0,West,24.2,39.1,0.07,Rain,Light Rain,260,2013-03-24 23:49:00
7:53 PM,51.1,46.9,86,29.45,8.0,West,21.9,31.1,0.07,Rain,Light Rain,260,2013-03-24 23:53:00
8:27 PM,48.2,42.8,82,29.49,10.0,West,20.7,26.5,0.05,Rain,Light Rain,260,2013-03-25 00:27:00
8:53 PM,48.9,41.0,74,29.51,10.0,WSW,17.3,-,0.05,,Overcast,240,2013-03-25 00:53:00
9:53 PM,46.0,39.9,79,29.53,10.0,WSW,25.3,32.2,0.03,Rain,Light Rain,240,2013-03-25 01:53:00
10:22 PM,44.6,37.4,76,29.56,6.0,WSW,20.7,38.0,0.00,Rain,Light Rain,250,2013-03-25 02:22:00
10:37 PM,42.8,35.6,76,29.57,10.0,West,19.6,35.7,0.00,,Overcast,270,2013-03-25 02:37:00
10:53 PM,43.0,35.1,74,29.58,10.0,WSW,26.5,34.5,0.00,,Mostly Cloudy,250,2013-03-25 02:53:00
11:53 PM,42.1,30.9,65,29.61,10.0,SW,18.4,26.5,N/A,,Overcast,230,2013-03-25 03:53:00